Stations météo

réclame
Mon MeteoGroup
Tyndrum, Grande-Bretagne (99020): Température de l'air & dewpoint: 12.10.2017 10:00:00 - 18.10.2017 10:00:00 (BST)Tyndrum, Grande-Bretagne (99020): Quantités de précipitations: 12.10.2017 10:00:00 - 18.10.2017 10:00:00 (BST)
Date & Time tt [°C] td [°C] rr [mm]
18.10.2017 10:00:00 - - -
18.10.2017 09:00:00 8,0 5,5 0,0
18.10.2017 08:00:00 8,0 5,4 0,0
18.10.2017 07:00:00 8,1 5,5 0,0
18.10.2017 06:00:00 8,3 5,9 0,0
18.10.2017 05:00:00 8,4 6,5 0,0
18.10.2017 04:00:00 8,5 6,7 0,0
18.10.2017 03:00:00 9,0 6,5 0,0
18.10.2017 02:00:00 9,2 6,3 0,0
18.10.2017 01:00:00 8,7 7,2 0,0
18.10.2017 00:00:00 9,0 6,9 0,0
17.10.2017 23:00:00 9,1 6,9 0,0
17.10.2017 22:00:00 9,5 6,9 0,0
17.10.2017 21:00:00 9,3 7,3 0,0
17.10.2017 20:00:00 10,2 7,5 0,0
17.10.2017 19:00:00 9,8 8,5 0,0
17.10.2017 18:00:00 10,6 9,1 0,0
17.10.2017 17:00:00 11,5 9,3 0,0
17.10.2017 16:00:00 11,7 9,1 0,0
17.10.2017 15:00:00 12,3 9,6 0,0
17.10.2017 14:00:00 11,8 9,8 0,0
17.10.2017 13:00:00 11,6 10,1 0,0
17.10.2017 12:00:00 11,2 9,8 0,2
17.10.2017 11:00:00 11,2 9,8 0,0
17.10.2017 10:00:00 11,1 10,0 0,8
17.10.2017 09:00:00 11,6 10,0 0,0
17.10.2017 08:00:00 11,6 9,7 0,4
17.10.2017 07:00:00 11,9 9,8 0,2
17.10.2017 06:00:00 12,0 10,0 0,8
17.10.2017 05:00:00 12,6 10,3 0,8
17.10.2017 04:00:00 12,8 10,8 4,4
17.10.2017 03:00:00 12,7 10,5 3,8
17.10.2017 02:00:00 11,9 10,3 6,8
17.10.2017 01:00:00 11,8 10,4 3,4
17.10.2017 00:00:00 11,8 10,1 1,6
16.10.2017 23:00:00 12,4 10,4 1,2
16.10.2017 22:00:00 12,3 10,5 2,4
16.10.2017 21:00:00 11,8 10,4 1,0
16.10.2017 20:00:00 11,4 9,9 2,2
16.10.2017 19:00:00 11,5 9,6 1,4
16.10.2017 18:00:00 13,5 9,6 0,2
16.10.2017 17:00:00 13,0 11,4 0,8
16.10.2017 16:00:00 12,4 10,9 0,0
16.10.2017 15:00:00 11,6 10,5 0,0
16.10.2017 14:00:00 11,4 10,0 0,0
16.10.2017 13:00:00 10,5 8,9 0,2
16.10.2017 12:00:00 10,8 8,6 0,0
16.10.2017 11:00:00 9,9 8,0 1,8
16.10.2017 10:00:00 9,6 7,9 2,6
16.10.2017 09:00:00 9,2 8,0 1,0
16.10.2017 08:00:00 8,4 8,1 0,0
16.10.2017 07:00:00 8,1 7,9 0,8
16.10.2017 06:00:00 8,2 7,9 0,2
16.10.2017 05:00:00 8,1 7,8 0,0
16.10.2017 04:00:00 8,0 7,6 0,2
16.10.2017 03:00:00 8,0 7,6 0,0
16.10.2017 02:00:00 8,2 7,7 0,0
16.10.2017 01:00:00 8,3 7,7 0,0
16.10.2017 00:00:00 8,6 7,7 0,0
15.10.2017 23:00:00 8,6 7,7 0,0
15.10.2017 22:00:00 8,8 7,7 0,0
15.10.2017 21:00:00 9,1 7,7 0,0
15.10.2017 20:00:00 9,5 7,9 0,0
15.10.2017 19:00:00 9,7 7,9 0,0
15.10.2017 18:00:00 10,4 7,6 0,0
15.10.2017 17:00:00 10,9 8,0 0,0
15.10.2017 16:00:00 12,1 10,0 0,0
15.10.2017 15:00:00 14,1 10,8 0,0
15.10.2017 14:00:00 15,7 11,7 0,0
15.10.2017 13:00:00 14,6 12,1 0,0
15.10.2017 12:00:00 13,5 12,5 1,8
15.10.2017 11:00:00 13,1 12,1 0,8
15.10.2017 10:00:00 13,0 11,6 0,2
15.10.2017 09:00:00 13,3 11,2 0,0
15.10.2017 08:00:00 13,1 11,0 0,0
15.10.2017 07:00:00 12,9 11,0 0,8
15.10.2017 06:00:00 12,9 11,4 0,8
15.10.2017 05:00:00 12,8 11,6 1,2
15.10.2017 04:00:00 13,4 11,8 0,2
15.10.2017 03:00:00 13,9 11,6 0,0
15.10.2017 02:00:00 13,8 11,6 0,0
15.10.2017 01:00:00 13,5 11,3 0,0
15.10.2017 00:00:00 13,0 11,4 0,0
14.10.2017 23:00:00 11,2 11,0 0,2
14.10.2017 22:00:00 9,8 9,1 0,0
14.10.2017 21:00:00 10,0 8,6 0,0
14.10.2017 20:00:00 9,8 8,0 0,0
14.10.2017 19:00:00 10,2 7,5 0,0
14.10.2017 18:00:00 10,6 7,8 0,0
14.10.2017 17:00:00 11,1 8,2 0,0
14.10.2017 16:00:00 10,9 7,6 0,0
14.10.2017 15:00:00 10,9 7,2 0,0
14.10.2017 14:00:00 12,3 7,7 0,0
14.10.2017 13:00:00 12,3 6,3 0,0
14.10.2017 12:00:00 12,4 6,6 0,0
14.10.2017 11:00:00 12,0 7,6 0,0
14.10.2017 10:00:00 11,9 6,2 0,0
14.10.2017 09:00:00 11,6 6,8 0,0
14.10.2017 08:00:00 11,3 5,4 0,0
14.10.2017 07:00:00 11,6 5,7 0,0
14.10.2017 06:00:00 11,6 6,5 0,0
14.10.2017 05:00:00 11,2 6,1 0,0
14.10.2017 04:00:00 11,1 6,0 0,0
14.10.2017 03:00:00 11,5 6,9 0,0
14.10.2017 02:00:00 12,4 7,4 0,0
14.10.2017 01:00:00 12,0 6,6 0,0
14.10.2017 00:00:00 12,6 6,9 0,0
13.10.2017 23:00:00 12,7 6,8 0,0
13.10.2017 22:00:00 12,4 6,8 0,0
13.10.2017 21:00:00 12,5 6,0 0,0
13.10.2017 20:00:00 13,1 5,9 0,0
13.10.2017 19:00:00 13,3 7,4 0,0
13.10.2017 18:00:00 13,6 7,4 0,0
13.10.2017 17:00:00 13,7 8,0 0,0
13.10.2017 16:00:00 13,9 8,3 0,0
13.10.2017 15:00:00 14,0 8,6 0,0
13.10.2017 14:00:00 13,7 9,6 0,0
13.10.2017 13:00:00 12,9 9,1 0,4
13.10.2017 12:00:00 13,1 9,4 1,4
13.10.2017 11:00:00 14,9 13,6 4,6
13.10.2017 10:00:00 16,1 14,7 2,6
13.10.2017 09:00:00 16,1 14,7 3,2
13.10.2017 08:00:00 15,0 14,2 4,4
13.10.2017 07:00:00 14,9 14,1 5,2
13.10.2017 06:00:00 14,9 14,0 3,0
13.10.2017 05:00:00 14,6 13,8 2,2
13.10.2017 04:00:00 14,5 13,7 3,2
13.10.2017 03:00:00 14,6 13,6 2,4
13.10.2017 02:00:00 14,1 13,4 1,2
13.10.2017 01:00:00 13,1 12,6 2,0
13.10.2017 00:00:00 12,6 11,9 0,6
12.10.2017 23:00:00 11,7 11,0 1,0
12.10.2017 22:00:00 11,2 10,3 1,0
12.10.2017 21:00:00 10,8 9,7 1,6
12.10.2017 20:00:00 11,1 8,6 0,0
12.10.2017 19:00:00 10,8 8,4 0,0
12.10.2017 18:00:00 10,7 8,3 0,0
12.10.2017 17:00:00 10,2 8,3 0,4
12.10.2017 16:00:00 10,7 8,2 0,0
12.10.2017 15:00:00 10,6 8,4 0,2
12.10.2017 14:00:00 10,6 8,3 0,0
12.10.2017 13:00:00 11,1 7,4 0,0
12.10.2017 12:00:00 11,0 7,4 0,0
12.10.2017 11:00:00 9,5 7,7 0,2
12.10.2017 10:00:00 9,5 7,7 0,2

tt = Température de l'air
td = dewpoint
rr = Quantités de précipitations

stations d'obs. à proximité